DW7214 Weather Reports


time (UTC)temp
C
wind
direction
speed
KPH
gust
KPH
rain 1hr
cm
rain 24hr
cm
rain mn
cm
humidity
%
barometer
mb
20260901040023 19 68 0.0 0.0 0.00 0.00 0.00 66 1009.0
20260901034531 20 53 0.0 3.2 0.00 0.00 0.00 63 1008.7
20260901033033 21 79 0.0 3.2 0.00 0.00 0.00 60 1008.4
20260901031531 21 67 0.0 6.4 0.00 0.00 0.00 58 1008.1
20260901030019 22 98 3.2 11.3 0.00 0.00 0.00 55 1008.0
20260901024526 23 144 1.6 8.0 0.00 0.00 0.00 54 1007.8
20260901023031 24 38 0.0 4.8 0.00 0.00 0.00 52 1007.7
20260901021535 25 229 3.2 6.4 0.00 0.00 0.00 51 1007.6
20260901020014 26 213 4.8 8.0 0.00 0.00 0.00 49 1007.7
20260901014524 26 186 1.6 9.7 0.00 0.00 0.00 48 1007.6
20260901013026 27 138 3.2 9.7 0.00 0.00 0.00 45 1007.6
20260901011508 28 199 1.6 12.9 0.00 0.00 0.00 44 1007.6
20260901010019 28 132 3.2 12.9 0.00 0.00 0.00 43 1007.5
20260901004518 29 151 6.4 16.1 0.00 0.00 0.00 42 1007.4
20260901003026 29 85 3.2 12.9 0.00 0.00 0.00 42 1007.4
20260901001529 28 13 3.2 9.7 0.00 0.00 0.00 40 1007.5
20260901000008 28 46 3.2 6.4 0.00 0.00 0.00 39 1007.6
20260831234517 28 247 0.0 8.0 0.00 0.00 0.00 39 1007.7
20260831233037 28 34 0.0 6.4 0.00 0.00 0.00 41 1007.8
20260831231534 28 36 0.0 4.8 0.00 0.00 0.00 42 1007.9
20260831230008 28 240 0.0 6.4 0.00 0.00 0.00 42 1007.9
20260831224511 28 175 0.0 3.2 0.00 0.00 0.00 40 1008.1
20260831223022 27 32 0.0 4.8 0.00 0.00 0.00 40 1008.3
20260831221534 27 11 0.0 8.0 0.00 0.00 0.00 43 1008.5
20260831220032 27 30 3.2 9.7 0.00 0.00 0.00 41 1008.6
20260831214513 27 49 1.6 6.4 0.00 0.00 0.00 44 1008.7
20260831213020 27 42 3.2 12.9 0.00 0.00 0.00 44 1008.9
20260831211527 27 32 3.2 9.7 0.00 0.00 0.00 42 1008.9
20260831210029 27 38 0.0 6.4 0.00 0.00 0.00 42 1009.0
20260831204531 26 36 0.0 6.4 0.00 0.00 0.00 42 1009.3
20260831203013 26 59 1.6 9.7 0.00 0.00 0.00 45 1009.4
20260831201526 25 61 0.0 8.0 0.00 0.00 0.00 46 1009.6
20260831200026 25 9 4.8 9.7 0.00 0.00 0.00 45 1009.8
20260831194530 24 29 3.2 8.0 0.00 0.00 0.00 48 1010.1
20260831193029 23 340 4.8 9.7 0.00 0.00 0.00 47 1010.2
20260831191519 23 346 6.4 12.9 0.00 0.00 0.00 48 1010.4
20260831190029 23 34 3.2 9.7 0.00 0.00 0.00 50 1010.6
20260831184529 22 48 0.0 6.4 0.00 0.00 0.00 53 1011.0
20260831183035 22 9 4.8 12.9 0.00 0.00 0.00 53 1011.1
20260831181519 21 9 3.2 6.4 0.00 0.00 0.00 56 1011.2
20260831180023 21 296 0.0 9.7 0.00 0.00 0.00 58 1011.3
20260831174529 21 56 0.0 3.2 0.00 0.00 0.00 59 1011.5
20260831173031 20 98 0.0 6.4 0.00 0.00 0.00 61 1011.7
20260831171531 19 51 1.6 6.4 0.00 0.00 0.00 62 1011.8
20260831170035 18 15 0.0 4.8 0.00 0.00 0.00 62 1011.9
20260831164530 18 341 3.2 4.8 0.00 0.00 0.00 64 1012.1
20260831163030 17 348 1.6 6.4 0.00 0.00 0.00 67 1012.3
20260831161516 17 33 1.6 4.8 0.00 0.00 0.00 68 1012.5
20260831160027 17 46 1.6 4.8 0.00 0.00 0.00 69 1012.5
20260831154548 16 44 0.0 3.2 0.00 0.00 0.00 75 1012.5
20260831153006 15 44 0.0 3.2 0.00 0.00 0.00 78 1012.7
20260831151512 13 311 0.0 0.0 0.00 0.00 0.00 83 1012.7
20260831150022 12 311 0.0 0.0 0.00 0.00 0.00 87 1012.7
20260831144524 10 311 0.0 0.0 0.00 0.00 0.00 90 1012.7
20260831143006 10 311 0.0 0.0 0.00 0.00 0.00 92 1012.7
20260831141508 8 311 0.0 0.0 0.00 0.00 0.00 92 1012.6
20260831140016 8 236 0.0 0.0 0.00 0.00 0.00 91 1012.7
20260831134524 8 236 0.0 0.0 0.00 0.00 0.00 90 1012.7
20260831133031 8 236 0.0 0.0 0.00 0.00 0.00 91 1012.7
20260831131509 8 283 0.0 0.0 0.00 0.00 0.00 90 1012.8
20260831130016 8 323 0.0 0.0 0.00 0.00 0.00 90 1012.8
20260831124525 8 323 0.0 0.0 0.00 0.00 0.00 90 1012.9
20260831123031 9 323 0.0 0.0 0.00 0.00 0.00 90 1013.0
20260831121540 9 323 0.0 0.0 0.00 0.00 0.00 89 1013.1
20260831120015 9 239 0.0 0.0 0.00 0.00 0.00 89 1013.2
20260831114520 9 239 0.0 0.0 0.00 0.00 0.00 88 1013.3
20260831113024 9 239 0.0 0.0 0.00 0.00 0.00 89 1013.4
20260831111528 10 239 0.0 0.0 0.00 0.00 0.00 88 1013.4
20260831110031 10 239 0.0 0.0 0.00 0.00 0.00 87 1013.4
20260831104522 10 239 0.0 0.0 0.00 0.00 0.00 87 1013.4
20260831103019 10 239 0.0 0.0 0.00 0.00 0.00 86 1013.5
20260831101527 10 239 0.0 0.0 0.00 0.00 0.00 86 1013.6
20260831100446 11 239 0.0 0.0 0.00 0.00 0.00 86 1013.8
20260831094538 11 239 0.0 0.0 0.00 0.00 0.00 85 1013.9
20260831093023 11 239 0.0 0.0 0.00 0.00 0.00 84 1014.1
20260831091524 11 239 0.0 0.0 0.00 0.00 0.00 84 1014.2
20260831090030 12 243 0.0 0.0 0.00 0.00 0.00 83 1014.2
20260831084538 12 243 0.0 0.0 0.00 0.00 0.00 82 1014.4
20260831083035 12 259 0.0 1.6 0.00 0.00 0.00 82 1014.5
20260831081523 12 261 0.0 3.2 0.00 0.00 0.00 82 1014.6
20260831080044 12 242 0.0 4.8 0.00 0.00 0.00 82 1014.7
20260831074529 13 250 0.0 3.2 0.00 0.00 0.00 79 1014.9
20260831073034 13 257 0.0 0.0 0.00 0.00 0.00 78 1015.1
20260831071520 13 257 0.0 0.0 0.00 0.00 0.00 78 1015.1
20260831070007 14 257 0.0 0.0 0.00 0.00 0.00 77 1015.2
20260831064506 15 257 0.0 0.0 0.00 0.00 0.00 75 1015.4
20260831063010 15 257 0.0 0.0 0.00 0.00 0.00 73 1015.5
20260831061506 15 257 0.0 0.0 0.00 0.00 0.00 72 1015.6
20260831060009 16 257 0.0 3.2 0.00 0.00 0.00 71 1015.8
20260831054505 16 258 0.0 3.2 0.00 0.00 0.00 70 1015.9
20260831053011 16 288 0.0 0.0 0.00 0.00 0.00 69 1016.1
20260831051513 17 281 0.0 3.2 0.00 0.00 0.00 69 1016.3
20260831050014 17 284 0.0 3.2 0.00 0.00 0.00 68 1016.4
20260831044519 17 277 1.6 3.2 0.00 0.00 0.00 67 1016.5
20260831043009 17 290 1.6 3.2 0.00 0.00 0.00 66 1016.8
20260831041510 18 281 0.0 4.8 0.00 0.00 0.00 65 1016.7